Miscellaneous Local Product
Issued by NWS Hastings, NE

Home | Current Version | Previous Version | Graphics & Text | Print | Product List | Glossary On
Versions: 1 2 3 4 5 6 7 8 9 10 11 12 13 14 15 16 17 18 19 20 21 22 23 24 25 26 27 28 29 30 31 32 33 34 35 36 37 38 39 40 41 42 43 44 45 46 47 48 49 50
000
AXUS43 KGID 221902
MISGRI

GID CWA HOURLY WEATHER ROUNDUP
NATIONAL WEATHER SERVICE HASTINGS NE
200 PM CDT TUE JUL 22 2014

NOTE: "FAIR" INDICATES FEW OR NO CLOUDS BELOW 12,000 FEET WITH NO
SIGNIFICANT WEATHER AND/OR OBSTRUCTIONS TO VISIBILITY.

...SOUTH CENTRAL NEBRASKA...

CITY           SKY/WX    TMP DP  RH WIND       PRES   REMARKS
GRAND ISLAND   SUNNY     87  69  54 NE13      30.13R HX  91
HASTINGS       SUNNY     89  66  46 NE13      30.11R HX  91
KEARNEY        SUNNY     90  64  43 NE15      30.14R HX  91
ORD            SUNNY     87  64  46 N7        30.14F
YORK           SUNNY     86  72  62 N16       30.09S HX  92
AURORA         SUNNY     87  69  55 NE8       30.10S HX  91
LEXINGTON      SUNNY     90  63  40 NE12      30.15R HX  90
HOLDREGE       SUNNY     89  65  44 E10       30.13S HX  90
HEBRON         PTSUNNY   92  72  50 N9        30.06R HX  99

...NEBRASKA PANHANDLE...

CITY           SKY/WX    TMP DP  RH WIND       PRES   REMARKS
CHADRON        SUNNY     88  59  37 NE13      30.22F
ALLIANCE       SUNNY     91  50  24 SE16G24   30.25F
SCOTTSBLUFF    SUNNY     88  57  34 E13       30.25F
SIDNEY         SUNNY     92  53  26 SE10G18   30.28S

...WESTERN AND NORTH CENTRAL NEBRASKA...

CITY           SKY/WX    TMP DP  RH WIND       PRES   REMARKS
VALENTINE      MOSUNNY   82  62  50 MISG      30.22F
AINSWORTH      MOSUNNY   79  61  53 N10       30.23R
ONEILL         MOSUNNY   84  62  47 N12       30.19R
BROKEN BOW     SUNNY     88  64  44 VRB6      30.17S
IMPERIAL       SUNNY     91  59  33 E9G18     30.19S HX  90
NORTH PLATTE   SUNNY     90  61  37 E8G17     30.17S HX  90
MCCOOK         SUNNY     91  64  40 E10       30.13F HX  92

...EASTERN NEBRASKA...

CITY           SKY/WX    TMP DP  RH WIND       PRES   REMARKS
NORFOLK        SUNNY     87  66  49 N15       30.12R
SO SIOUX CITY  PTSUNNY   85  68  56 N10       30.08R
TEKAMAH        MOSUNNY   88  69  53 N12       30.04F HX  92
COLUMBUS       MOSUNNY   88  66  48 N12       30.09S HX  90
ALBION         SUNNY     85  63  48 N9G18     30.13R
OMAHA EPPLEY   MOSUNNY   90  68  48 N17       30.04R HX  94
OFFUTT AFB     MOSUNNY   91  75  60 N15       30.03R HX 102
MILLARD        MOSUNNY   89  71  56 N6        30.03S HX  95
LINCOLN        MOSUNNY   95  73  48 N17       30.05S HX 104
NEBRASKA CITY  MOSUNNY   90  74  59 N6        30.03R HX 100
BEATRICE       PTSUNNY   89  74  62 N9        30.04R HX  98
FALLS CITY     PTSUNNY   96  74  48 S9        29.99F HX 107

...NORTHERN KANSAS...

CITY           SKY/WX    TMP DP  RH WIND       PRES   REMARKS
GOODLAND       SUNNY     93  59  31 E7        30.18F HX  92
HILL CITY      SUNNY     95  65  37 S7        30.09S HX  97
NORTON         CLEAR     93  55  27 SE3       30.10F HX  91
PHILLIPSBURG   SUNNY     99  57  25 SW3       30.07S HX  97
SMITH CENTER   SUNNY     99  59  26 S6        30.06F HX  98
HAYS           MOSUNNY   93  64  38 S6        30.09S HX  95
RUSSELL        MOSUNNY   92  69  47 SW7       30.07S HX  97
CONCORDIA      PTSUNNY   96  64  34 SW9       30.04S HX  98
SALINA         MOSUNNY   99  68  36 W8        30.04S HX 104
TOPEKA         PTSUNNY  100  70  37 VRB5      30.01F HX 107



USA.gov is the U.S. government's official web portal to all federal, state and local government web resources and services.